Weather Service Report


021 
ASUS41 KAKQ 292315
RWRAKQ

REGIONAL WEATHER ROUNDUP
NATIONAL WEATHER SERVICE WAKEFIELD VA
700 PM EDT WED JUN 29 2016

Note: "fair" indicates few or no clouds below 12,000 feet with no
significant weather and/or obstructions to visibility. * = Denotes
station may not report precipitation (e.g., rain,snow,etc.),
thunder or fog.

VAZ042-051-052>054-056-300000-
NORTHERN VIRGINIA
  
CITY           SKY/WX    TMP DP  RH WIND       PRES   REMARKS
WASH NATIONAL  FAIR      80  55  42 NW14G22   29.96R                  
DULLES         FAIR      79  54  41 N13       29.96S                  
FORT BELVOIR   FAIR      80  55  42 N9        29.95R                  
QUANTICO       FAIR      81  54  39 N9        29.96R                  
FREDERICKSBRG* FAIR      81  59  46 N7        29.94S                  
STAFFORD*      FAIR      79  56  44 N9        29.99S                  
WARRENTON      FAIR      80  49  34 N8        29.96R                  
CULPEPER*      FAIR      79  59  49 N7        29.97R                  
MANASSAS*      NOT AVBL                                               
LEESBURG*      FAIR      79  59  50 N12G18    29.98S                  
WINCHESTER     FAIR      77  54  44 NW9       29.99S                  
FRONT ROYAL*   FAIR      75  55  50 N6        29.98S                  
LURAY*         MOCLDY    79  55  44 N8        29.98S                  
$$

VAZ048-049-060>072-079>083-300000-
CENTRAL AND SOUTH CENTRAL VIRGINIA
  
CITY           SKY/WX    TMP DP  RH WIND       PRES   REMARKS
RICHMOND       FAIR      82  62  50 E3        29.93S                  
CHESTERFIELD*  FAIR      82  57  42 S3        29.95R                  
PETERSBURG*    FAIR      85  61  44 CALM      29.95R                  
HANOVER        FAIR      83  64  52 NE3       29.95S                  
TAPPAHANNOCK*  FAIR      83  60  46 N5        29.95R                  
QUINTON*       FAIR      82  63  51 N3        29.93R                  
CHARLOTTSVILLE CLOUDY    81  59  47 NE8       29.95S                  
GORDONSVILLE*  FAIR      78  62  56 NE7       29.95S                  
ORANGE*          N/A     79  59  50 N6        29.98R                  
LOUISA*        FAIR      82  64  54 NE6       29.94R                  
BUMPASS*       FAIR      80  65  60 N3        29.94S                  
FARMVILLE*     NOT AVBL                                               
CREWE*         FAIR      81  68  64 CALM      29.94R                  
FORT PICKETT*  FAIR      84  61  46 CALM      29.94R                  
CHASE CITY*    FAIR      83  64  51 CALM      29.95R                  
CLARKSVILLE*   FAIR      79  73  83 CALM      29.94S                  
SOUTH HILL*    FAIR      78  68  71 CALM      30.00R                  
LAWRENCEVILLE* FAIR      82  66  59 CALM      29.94R                  
EMPORIA*       FAIR      81  68  65 CALM      29.95R                  
$$

VAZ088>098-300000-
SOUTHEAST VIRGINIA
  
CITY           SKY/WX    TMP DP  RH WIND       PRES   REMARKS
NORFOLK        FAIR      81  66  60 NE7       29.93R                  
VIRGINIA BEACH FAIR      86  64  47 N9        29.92R                  
NORFOLK NAVAL  FAIR      81  67  62 NE6       29.95R                  
WEST POINT*    FAIR      83  58  42 NW5       29.94R                  
SALUDA*        FAIR      82  63  53 NW5       29.93R                  
NEWPORT NEWS   PTSUNNY   83  66  56 NE3       29.93R                  
LANGLEY AFB    FAIR      80  69  67 N6        29.93R                  
FORT EUSTIS    FAIR      83  73  70 W2        29.92R                  
WILLIAMSBURG*  FAIR      82  64  54 CALM      29.94R                  
HR EXEC AP*    FAIR      84  66  54 NE3       29.95R                  
FRANKLIN*      FAIR      83  62  48 NW5       29.94R                  
US460-WAKEFLD  FAIR      84  66  54 CALM      29.93S                  
$$

VAZ020-022-025-037-045-300000-
WEST CENTRAL AND SOUTHWEST VIRGINIA
  
CITY           SKY/WX    TMP DP  RH WIND       PRES   REMARKS
STAUNTON*      FAIR      77  57  50 NE8       30.00S                  
WAYNESBORO*    FAIR      77  56  48 N7        29.99S                  
HOT SPRINGS VA FAIR      69  53  56 N7        30.10R                  
LYNCHBURG      FAIR      83  58  42 CALM      29.97R                  
DANVILLE       FAIR      76  70  82 CALM      29.95S                  
SOUTH BOSTON*  FAIR      78  66  67 S3        29.95R                  
MARTINSVILLE   PTSUNNY   76  65  68 SW5       30.00R                  
ROANOKE        FAIR      82  60  47 N5        29.99R                  
BLACKSBURG     FAIR      78  57  48 NW3       30.06R                  
DUBLIN*        FAIR      78  58  49 N6        30.04R                  
MARION*        FAIR      77  56  48 NW7       30.07S                  
HILLSVILLE*    FAIR      77  57  50 N6        30.04R                  
RICHLANDS*     CLOUDY    75  58  55 NW5       30.07S                  
WISE*          FAIR      75  45  33 NW5       30.09S                  
ABINGDON*      FAIR      79  58  47 N5        30.03R                  
$$

MDZ021>025-VAZ099-100-300000-
SOUTHERN MARYLAND AND THE DELMARVA PENINSULA
  
CITY           SKY/WX    TMP DP  RH WIND       PRES   REMARKS
PATUXENT RIVER MOSUNNY   81  58  45 NW14      29.93S                  
BAY BRIDGE APT MOSUNNY   79  59  50 NW10      29.94R                  
LEONARDTOWN    SUNNY     79  55  44 CALM      29.96R                  
DOVER          MOSUNNY   81  61  50 W14       29.90R                  
GEORGETOWN     SUNNY     81  57  43 NW9       29.92R                  
EASTON         MOSUNNY   81  63  54 NW9G16    29.97R                  
CAMBRIDGE      SUNNY     79  55  44 NW7       29.93R                  
SALISBURY      SUNNY     80  58  46 NW8       29.92R                  
OCEAN CITY     MOSUNNY   76  71  85 S5        29.91R                  
WALLOPS ISLAND FAIR      80  62  54 NW7       29.92R                  
ACCOMACK*      FAIR      81  61  50 CALM      29.93R                  
$$

NCZ012>017-030>032-300000-
NORTH CENTRAL AND EASTERN NORTH CAROLINA
  
CITY           SKY/WX    TMP DP  RH WIND       PRES   REMARKS
ROANOKE RAPIDS FAIR      77  72  83 CALM      29.94R                  
RALEIGH        PTSUNNY   84  68  58 E6        29.93R                  
ELIZABETH CITY SUNNY     86  62  44 N8        29.93R                  
AHOSKIE*       SUNNY     79  69  73 CALM      29.94                   
EDENTON*       MOSUNNY   87  63  44 NW5       29.93S                  
CURRITUCK*     SUNNY     83  67  58 E5        29.94R                  
KILL DEVIL HLS MOSUNNY   83  72  70 E5        29.93R                  
MANTEO         SUNNY     82  75  80 S7        29.93R                  
CAPE HATTERAS  PTSUNNY   80  73  79 SW7       29.94R                  
TARBORO*       FAIR      87  64  45 CALM      29.93S                  
GOLDSBORO      SUNNY     89  66  45 SE7       29.90S                  
WASHINGTON     SUNNY     87  64  46 CALM      29.92S                  
GREENVILLE     SUNNY     88  68  51 N3        29.94S                  
NEW BERN       MOSUNNY   86  69  56 S7        29.94S                  
WILMINGTON     LGT RAIN  82  71  69 S8        29.95R                  
$$

VAZ048-300000-
ELSEWHERE
  
CITY           SKY/WX    TMP DP  RH WIND       PRES   REMARKS
HARRISBURG PA  MOSUNNY   77  54  44 NW13      29.94S                  
BALTIMORE      MOSUNNY   78  56  46 VRB7      29.95R                  
ANNAPOLIS      SUNNY     80  58  46 W10       29.94R                  
ANDREWS AFB    FAIR      78  55  44 NW12      29.95R                  
PHILADELPHIA   MOSUNNY   82  53  36 W12       29.90S                  
HENDERSON NC   LGT RAIN  69  65  89 S3        29.95R                  
GREENSBORO     CLOUDY    76  64  66 N9G16     29.97R                  
ROCKY MOUNT    SUNNY     86  67  52 NE5       29.93R                  
$$

VAZ100-300000-
MARINE
  
STATION/POSITION TIME  TEMP    WIND        PRES    WAVE   SWELL
                       AIR SEA DIR/SP/G            HT/PER HT/PER
                 (UTC) (F)     (DEG/KT/KT) (MB)    (FT/S) (FT/S)
BRANDYWINE LGT   2200          330/  8/  9   N/A
CAPE MAY NJ      2200          320/  3/  8   N/A
LEWES DE         2200          300/ 10/ 12   N/A
15NM E FENWICK I 2250   75 73              1012.7R   2/ 7
OCEAN-CITY-INLET 2200          200/  5/  6   N/A
WACHAPREAGUE VA  2200          300/  4/  9   N/A
THOMAS POINT MD  2300   78 77  300/ 14/ 16 1015.1R
GOOSES REEF MD   2300   80 78  320/ 12/ 14 1014.7R   2/ 3
COVE POINT MD    2200          350/ 14/ 16   N/A
SOLOMONS ISLAND  2200          320/  8/ 12   N/A
BISHOPS HEAD MD  2200          330/  9/ 13   N/A
PINEY POINT MD   2200          340/ 11/ 12   N/A
POTOMAC MD       2300   81 78  340/ 10/ 10 1012.5R   1/ 2
CAMBRIDGE MD     2200          310/ 11/ 16   N/A
LEWISETTA VA     2200           10/  6/  9   N/A
RAPPAHANNOCK LGT 2200          360/ 10/ 11   N/A
STINGRAY PT      2300   83 80  320/  6/  8 1013.8R   1/ 3
YORK RVR RNG VA  2200           80/  6/  7   N/A
YORKTOWN VA      2200          100/  5/  6   N/A
JAMESTOWN VA     2300   86        CALM       N/A     0
DOMINION TERM VA 2200           60/  6/  7   N/A
KIPTOPEKE VA     2200          330/  6/  7   N/A
CHES BAY BRIDGE  2200          350/  9/  9   N/A
CAPE HENRY VA    2200          350/  9/ 11   N/A
WILLOUBY STN VA  2200           40/  5/  5   N/A
CAPE HENRY BUOY  2212      77                N/A     2/ 8
1ST LANDING BUOY 2300   80 77  360/  6/  8 1013.3R   1/ 4
CAPE CHARLES BUO 2226      78                N/A     2/ 8
OFFSHORE WE BUOY 2221      76                N/A     2/ 8
64NM E OF VA BCH 2250   76 75  250/  6/  6 1013.5R   3/ 6   2/ 6
DUCK PIER NC     2200          110/  8/  9   N/A
44056 DUCK FRF   2211      77                N/A     2/ 9
OREGON INLET NC  2200          170/  7/  8   N/A
HATTERAS NC      2200          200/  8/ 11   N/A
DIAMOND SHLS NC  2250   80 84  240/ 10/ 12 1014.0R   3/ 8   3/ 8
CAPE LOOKOUT NC  2300   79     180/ 11/ 12 1014.0R
$$
  

Return to Home page


Western Regional Climate Center, wrcc@dri.edu